Time,TemperatureF,DewpointF,PressureIn,WindDirection,WindDirectionDegrees,WindSpeedMPH,WindSpeedGustMPH,Humidity,HourlyPrecipIn,Conditions,Clouds,dailyrainin,SoftwareType,DateUTC
2013-08-07 00:03:00,82.4,67.6,29.79,South,187,0.0,1.0,61,0.00,,---,0.00,VWS V14.01,2013-08-07 05:03:00,
2013-08-07 00:08:00,81.8,65.6,29.79,South,187,1.0,3.0,58,0.00,,---,0.00,VWS V14.01,2013-08-07 05:08:00,
2013-08-07 00:13:00,82.7,64.9,29.79,South,179,2.0,3.0,55,0.00,,---,0.00,VWS V14.01,2013-08-07 05:13:00,
2013-08-07 00:18:00,83.9,64.9,29.79,South,172,0.0,6.0,53,0.00,,---,0.00,VWS V14.01,2013-08-07 05:18:00,
2013-08-07 00:23:00,84.9,65.3,29.79,South,172,1.0,4.0,52,0.00,,---,0.00,VWS V14.01,2013-08-07 05:23:00,
2013-08-07 00:28:00,85.6,65.4,29.79,SSE,165,6.0,6.0,51,0.00,,---,0.00,VWS V14.01,2013-08-07 05:28:00,
2013-08-07 00:33:00,86.3,66.1,29.79,South,184,2.0,6.0,51,0.00,,---,0.00,VWS V14.01,2013-08-07 05:33:00,
2013-08-07 00:38:00,86.8,66.5,29.79,South,178,2.0,5.0,51,0.00,,---,0.00,VWS V14.01,2013-08-07 05:38:00,
2013-08-07 00:43:00,87.3,67.0,29.79,South,178,8.0,8.0,51,0.00,,---,0.00,VWS V14.01,2013-08-07 05:43:00,
2013-08-07 00:48:00,87.9,67.5,29.79,South,190,6.0,10.0,51,0.00,,---,0.00,VWS V14.01,2013-08-07 05:48:00,
2013-08-07 00:53:00,88.4,68.0,29.79,SSW,196,6.0,6.0,51,0.00,,---,0.00,VWS V14.01,2013-08-07 05:53:00,
2013-08-07 00:59:00,88.6,68.2,29.79,South,184,6.0,9.0,51,0.00,,---,0.00,VWS V14.01,2013-08-07 05:59:00,
2013-08-07 01:04:00,88.7,68.3,29.79,SSE,163,3.0,12.0,51,0.00,,---,0.00,VWS V14.01,2013-08-07 06:04:00,
2013-08-07 01:09:00,88.7,68.3,29.79,SSW,196,9.0,13.0,51,0.00,,---,0.00,VWS V14.01,2013-08-07 06:09:00,
2013-08-07 01:14:00,88.6,68.7,29.80,South,185,3.0,10.0,52,0.00,,---,0.00,VWS V14.01,2013-08-07 06:14:00,
2013-08-07 01:19:00,88.4,68.6,29.80,SSE,165,8.0,8.0,52,0.00,,---,0.00,VWS V14.01,2013-08-07 06:19:00,
2013-08-07 01:24:00,88.2,68.4,29.80,SSW,207,7.0,11.0,52,0.00,,---,0.00,VWS V14.01,2013-08-07 06:24:00,
2013-08-07 01:29:00,88.0,68.7,29.79,South,180,6.0,11.0,53,0.00,,---,0.00,VWS V14.01,2013-08-07 06:29:00,
2013-08-07 01:34:00,87.8,68.6,29.79,SW,215,9.0,13.0,53,0.00,,---,0.00,VWS V14.01,2013-08-07 06:34:00,
2013-08-07 01:39:00,87.7,69.0,29.79,South,174,3.0,6.0,54,0.00,,---,0.00,VWS V14.01,2013-08-07 06:39:00,
2013-08-07 01:44:00,87.5,68.8,29.79,South,180,5.0,8.0,54,0.00,,---,0.00,VWS V14.01,2013-08-07 06:44:00,
2013-08-07 01:49:00,87.3,68.6,29.79,South,184,4.0,9.0,54,0.00,,---,0.00,VWS V14.01,2013-08-07 06:49:00,
2013-08-07 01:54:00,87.1,69.0,29.79,South,184,7.0,10.0,55,0.00,,---,0.00,VWS V14.01,2013-08-07 06:54:00,
2013-08-07 02:00:00,86.9,68.8,29.79,SSW,198,12.0,12.0,55,0.00,,---,0.00,VWS V14.01,2013-08-07 07:00:00,
2013-08-07 02:05:00,86.9,69.3,29.79,South,171,7.0,9.0,56,0.00,,---,0.00,VWS V14.01,2013-08-07 07:05:00,
2013-08-07 02:10:00,86.8,69.2,29.79,South,182,9.0,10.0,56,0.00,,---,0.00,VWS V14.01,2013-08-07 07:10:00,
2013-08-07 02:15:00,86.7,69.1,29.79,South,184,8.0,8.0,56,0.00,,---,0.00,VWS V14.01,2013-08-07 07:15:00,
2013-08-07 02:20:00,86.6,69.1,29.79,SSE,162,7.0,13.0,56,0.00,,---,0.00,VWS V14.01,2013-08-07 07:20:00,
2013-08-07 02:25:00,86.6,69.6,29.79,South,171,4.0,10.0,57,0.00,,---,0.00,VWS V14.01,2013-08-07 07:25:00,
2013-08-07 02:30:00,86.5,69.5,29.79,SSW,205,6.0,10.0,57,0.00,,---,0.00,VWS V14.01,2013-08-07 07:30:00,
2013-08-07 02:35:00,86.3,69.3,29.79,SSW,197,4.0,8.0,57,0.00,,---,0.00,VWS V14.01,2013-08-07 07:35:00,
2013-08-07 02:40:00,86.1,69.6,29.79,SSW,194,12.0,12.0,58,0.00,,---,0.00,VWS V14.01,2013-08-07 07:40:00,
2013-08-07 02:45:00,86.0,69.5,29.79,SW,231,6.0,8.0,58,0.00,,---,0.00,VWS V14.01,2013-08-07 07:45:00,
2013-08-07 02:50:00,85.8,69.3,29.79,SSW,207,7.0,12.0,58,0.00,,---,0.00,VWS V14.01,2013-08-07 07:50:00,
2013-08-07 02:56:00,85.7,69.7,29.79,South,178,14.0,14.0,59,0.00,,---,0.00,VWS V14.01,2013-08-07 07:56:00,
2013-08-07 03:01:00,85.5,70.0,29.78,South,186,6.0,16.0,60,0.00,,---,0.00,VWS V14.01,2013-08-07 08:01:00,
2013-08-07 03:06:00,85.4,69.9,29.78,SSE,166,7.0,13.0,60,0.00,,---,0.00,VWS V14.01,2013-08-07 08:06:00,
2013-08-07 03:11:00,85.3,70.3,29.78,South,190,6.0,14.0,61,0.00,,---,0.00,VWS V14.01,2013-08-07 08:11:00,
2013-08-07 03:16:00,85.1,70.2,29.78,South,170,6.0,14.0,61,0.00,,---,0.00,VWS V14.01,2013-08-07 08:16:00,
2013-08-07 03:21:00,85.0,70.5,29.78,SE,138,6.0,12.0,62,0.00,,---,0.00,VWS V14.01,2013-08-07 08:21:00,
2013-08-07 03:26:00,84.9,70.4,29.78,SSW,196,4.0,12.0,62,0.00,,---,0.00,VWS V14.01,2013-08-07 08:26:00,
2013-08-07 03:31:00,84.7,70.2,29.78,South,180,12.0,16.0,62,0.00,,---,0.00,VWS V14.01,2013-08-07 08:31:00,
2013-08-07 03:36:00,84.6,70.6,29.78,South,184,7.0,10.0,63,0.00,,---,0.00,VWS V14.01,2013-08-07 08:36:00,
2013-08-07 03:41:00,84.5,70.5,29.78,SW,215,1.0,10.0,63,0.00,,---,0.00,VWS V14.01,2013-08-07 08:41:00,
2013-08-07 03:46:00,84.4,70.9,29.78,SSW,194,10.0,12.0,64,0.00,,---,0.00,VWS V14.01,2013-08-07 08:46:00,
2013-08-07 03:52:00,84.3,70.8,29.79,SSW,192,7.0,13.0,64,0.00,,---,0.00,VWS V14.01,2013-08-07 08:52:00,
2013-08-07 03:57:00,84.1,71.1,29.79,South,171,5.0,10.0,65,0.00,,---,0.00,VWS V14.01,2013-08-07 08:57:00,
2013-08-07 04:02:00,83.9,70.9,29.79,SSE,148,12.0,12.0,65,0.00,,---,0.00,VWS V14.01,2013-08-07 09:02:00,
2013-08-07 04:07:00,83.7,71.1,29.79,South,188,4.0,9.0,66,0.00,,---,0.00,VWS V14.01,2013-08-07 09:07:00,
2013-08-07 04:12:00,83.7,71.1,29.79,South,182,10.0,10.0,66,0.00,,---,0.00,VWS V14.01,2013-08-07 09:12:00,
2013-08-07 04:17:00,83.6,71.1,29.79,SSW,202,2.0,14.0,66,0.00,,---,0.00,VWS V14.01,2013-08-07 09:17:00,
2013-08-07 04:22:00,83.5,70.9,29.79,South,171,6.0,11.0,66,0.00,,---,0.00,VWS V14.01,2013-08-07 09:22:00,
2013-08-07 04:27:00,83.3,70.8,29.79,South,185,2.0,9.0,66,0.00,,---,0.00,VWS V14.01,2013-08-07 09:27:00,
2013-08-07 04:32:00,83.3,71.2,29.79,South,184,2.0,8.0,67,0.00,,---,0.00,VWS V14.01,2013-08-07 09:32:00,
2013-08-07 04:37:00,83.2,71.1,29.79,South,178,7.0,10.0,67,0.00,,---,0.00,VWS V14.01,2013-08-07 09:37:00,
2013-08-07 04:42:00,83.0,70.9,29.79,SSW,199,1.0,8.0,67,0.00,,---,0.00,VWS V14.01,2013-08-07 09:42:00,
2013-08-07 04:48:00,82.9,71.3,29.79,SSW,199,3.0,9.0,68,0.00,,---,0.00,VWS V14.01,2013-08-07 09:48:00,
2013-08-07 04:53:00,82.8,71.2,29.79,SSW,192,0.0,5.0,68,0.00,,---,0.00,VWS V14.01,2013-08-07 09:53:00,
2013-08-07 04:58:00,82.7,71.1,29.78,South,187,2.0,11.0,68,0.00,,---,0.00,VWS V14.01,2013-08-07 09:58:00,
2013-08-07 05:03:00,82.5,71.3,29.78,South,178,3.0,7.0,69,0.00,,---,0.00,VWS V14.01,2013-08-07 10:03:00,
2013-08-07 05:08:00,82.3,71.1,29.78,SSW,198,5.0,7.0,69,0.00,,---,0.00,VWS V14.01,2013-08-07 10:08:00,
2013-08-07 05:13:00,82.2,71.0,29.78,SW,219,10.0,11.0,69,0.00,,---,0.00,VWS V14.01,2013-08-07 10:13:00,
2013-08-07 05:18:00,82.1,70.9,29.78,South,182,4.0,6.0,69,0.00,,---,0.00,VWS V14.01,2013-08-07 10:18:00,
2013-08-07 05:23:00,81.9,71.2,29.78,SW,215,4.0,8.0,70,0.00,,---,0.00,VWS V14.01,2013-08-07 10:23:00,
2013-08-07 05:28:00,81.8,71.1,29.78,South,179,1.0,7.0,70,0.00,,---,0.00,VWS V14.01,2013-08-07 10:28:00,
2013-08-07 05:33:00,81.7,71.4,29.79,South,180,3.0,6.0,71,0.00,,---,0.00,VWS V14.01,2013-08-07 10:33:00,
2013-08-07 05:38:00,81.6,71.3,29.79,South,169,3.0,7.0,71,0.00,,---,0.00,VWS V14.01,2013-08-07 10:38:00,
2013-08-07 05:43:00,81.5,71.2,29.79,SSE,163,4.0,9.0,71,0.00,,---,0.00,VWS V14.01,2013-08-07 10:43:00,
2013-08-07 05:49:00,81.4,71.1,29.79,SSE,159,9.0,9.0,71,0.00,,---,0.00,VWS V14.01,2013-08-07 10:49:00,
2013-08-07 05:54:00,81.2,71.3,29.79,South,172,8.0,8.0,72,0.00,,---,0.00,VWS V14.01,2013-08-07 10:54:00,
2013-08-07 05:59:00,81.1,71.2,29.80,South,174,0.0,10.0,72,0.00,,---,0.00,VWS V14.01,2013-08-07 10:59:00,
2013-08-07 06:04:00,81.0,71.1,29.80,South,173,3.0,6.0,72,0.00,,---,0.00,VWS V14.01,2013-08-07 11:04:00,
2013-08-07 06:09:00,80.9,71.4,29.80,SSW,192,7.0,11.0,73,0.00,,---,0.00,VWS V14.01,2013-08-07 11:09:00,
2013-08-07 06:14:00,80.8,71.3,29.79,South,187,7.0,12.0,73,0.00,,---,0.00,VWS V14.01,2013-08-07 11:14:00,
2013-08-07 06:19:00,80.7,71.2,29.79,South,178,3.0,10.0,73,0.00,,---,0.00,VWS V14.01,2013-08-07 11:19:00,
2013-08-07 06:24:00,80.5,71.5,29.79,SSW,192,5.0,10.0,74,0.00,,---,0.00,VWS V14.01,2013-08-07 11:24:00,
2013-08-07 06:29:00,80.5,71.5,29.79,South,176,3.0,8.0,74,0.00,,---,0.00,VWS V14.01,2013-08-07 11:29:00,
2013-08-07 06:34:00,80.4,71.4,29.79,SW,214,6.0,8.0,74,0.00,,---,0.00,VWS V14.01,2013-08-07 11:34:00,
2013-08-07 06:39:00,80.3,71.3,29.79,South,189,10.0,10.0,74,0.00,,---,0.00,VWS V14.01,2013-08-07 11:39:00,
2013-08-07 06:45:00,80.2,71.2,29.79,SSE,163,5.0,6.0,74,0.00,,---,0.00,VWS V14.01,2013-08-07 11:45:00,
2013-08-07 06:50:00,80.1,71.5,29.80,SSW,204,9.0,12.0,75,0.00,,---,0.00,VWS V14.01,2013-08-07 11:50:00,
2013-08-07 06:55:00,80.0,71.4,29.79,South,171,2.0,13.0,75,0.00,,---,0.00,VWS V14.01,2013-08-07 11:55:00,
2013-08-07 07:00:00,80.0,71.4,29.80,SW,215,4.0,9.0,75,0.00,,---,0.00,VWS V14.01,2013-08-07 12:00:00,
2013-08-07 07:05:00,79.9,71.7,29.80,South,175,3.0,11.0,76,0.00,,---,0.00,VWS V14.01,2013-08-07 12:05:00,
2013-08-07 07:10:00,79.9,71.7,29.80,SSW,211,2.0,12.0,76,0.00,,---,0.00,VWS V14.01,2013-08-07 12:10:00,
2013-08-07 07:15:00,79.9,71.7,29.80,South,179,1.0,13.0,76,0.00,,---,0.00,VWS V14.01,2013-08-07 12:15:00,
2013-08-07 07:20:00,79.9,71.7,29.80,SSE,168,3.0,7.0,76,0.00,,---,0.00,VWS V14.01,2013-08-07 12:20:00,
2013-08-07 07:25:00,79.9,71.7,29.81,SSW,201,7.0,13.0,76,0.00,,---,0.00,VWS V14.01,2013-08-07 12:25:00,
2013-08-07 07:30:00,80.0,71.8,29.81,SSW,211,5.0,12.0,76,0.00,,---,0.00,VWS V14.01,2013-08-07 12:30:00,
2013-08-07 07:36:00,80.1,71.9,29.81,SSW,202,9.0,17.0,76,0.00,,---,0.00,VWS V14.01,2013-08-07 12:36:00,
2013-08-07 07:41:00,80.2,71.9,29.81,SSE,166,6.0,9.0,76,0.00,,---,0.00,VWS V14.01,2013-08-07 12:41:00,
2013-08-07 07:46:00,80.3,72.1,29.81,SSE,167,4.0,7.0,76,0.00,,---,0.00,VWS V14.01,2013-08-07 12:46:00,
2013-08-07 07:51:00,80.4,72.2,29.81,SSW,202,4.0,7.0,76,0.00,,---,0.00,VWS V14.01,2013-08-07 12:51:00,
2013-08-07 07:56:00,80.5,72.2,29.81,South,180,4.0,9.0,76,0.00,,---,0.00,VWS V14.01,2013-08-07 12:56:00,
2013-08-07 08:01:00,80.7,72.4,29.81,South,171,4.0,11.0,76,0.00,,---,0.00,VWS V14.01,2013-08-07 13:01:00,
2013-08-07 08:06:00,80.8,72.1,29.81,South,189,4.0,10.0,75,0.00,,---,0.00,VWS V14.01,2013-08-07 13:06:00,
2013-08-07 08:11:00,81.0,72.3,29.81,SSE,157,3.0,9.0,75,0.00,,---,0.00,VWS V14.01,2013-08-07 13:11:00,
2013-08-07 08:16:00,81.2,72.5,29.81,SW,221,4.0,7.0,75,0.00,,---,0.00,VWS V14.01,2013-08-07 13:16:00,
2013-08-07 08:21:00,81.5,72.4,29.82,SSW,194,2.0,9.0,74,0.00,,---,0.00,VWS V14.01,2013-08-07 13:21:00,
2013-08-07 08:26:00,81.4,72.3,29.82,SSW,206,9.0,15.0,74,0.00,,---,0.00,VWS V14.01,2013-08-07 13:26:00,
2013-08-07 08:31:00,81.6,72.1,29.82,South,188,7.0,16.0,73,0.00,,---,0.00,VWS V14.01,2013-08-07 13:31:00,
2013-08-07 08:36:00,81.8,72.3,29.83,SSW,194,7.0,10.0,73,0.00,,---,0.00,VWS V14.01,2013-08-07 13:36:00,
2013-08-07 08:42:00,82.2,72.7,29.83,SSW,206,6.0,9.0,73,0.00,,---,0.00,VWS V14.01,2013-08-07 13:42:00,
2013-08-07 08:47:00,82.3,72.4,29.83,SSW,197,6.0,10.0,72,0.00,,---,0.00,VWS V14.01,2013-08-07 13:47:00,
2013-08-07 08:52:00,82.3,72.4,29.83,South,182,13.0,13.0,72,0.00,,---,0.00,VWS V14.01,2013-08-07 13:52:00,
2013-08-07 08:57:00,82.3,72.4,29.83,South,188,4.0,15.0,72,0.00,,---,0.00,VWS V14.01,2013-08-07 13:57:00,
2013-08-07 09:02:00,82.6,72.7,29.83,WSW,243,6.0,11.0,72,0.00,,---,0.00,VWS V14.01,2013-08-07 14:02:00,
2013-08-07 09:07:00,83.3,72.9,29.83,SSW,194,5.0,9.0,71,0.00,,---,0.00,VWS V14.01,2013-08-07 14:07:00,
2013-08-07 09:12:00,83.7,72.9,29.83,South,175,4.0,10.0,70,0.00,,---,0.00,VWS V14.01,2013-08-07 14:12:00,
2013-08-07 09:17:00,83.9,72.7,29.83,SSW,209,8.0,11.0,69,0.00,,---,0.00,VWS V14.01,2013-08-07 14:17:00,
2013-08-07 09:22:00,83.9,72.7,29.84,South,172,8.0,11.0,69,0.00,,---,0.00,VWS V14.01,2013-08-07 14:22:00,
2013-08-07 09:27:00,84.3,73.0,29.84,SSW,193,3.0,8.0,69,0.00,,---,0.00,VWS V14.01,2013-08-07 14:27:00,
2013-08-07 09:33:00,84.6,72.4,29.84,SSW,192,7.0,9.0,67,0.00,,---,0.00,VWS V14.01,2013-08-07 14:33:00,
2013-08-07 09:38:00,84.6,72.9,29.84,South,188,5.0,10.0,68,0.00,,---,0.00,VWS V14.01,2013-08-07 14:38:00,
2013-08-07 09:43:00,85.2,73.0,29.84,SSE,167,3.0,7.0,67,0.00,,---,0.00,VWS V14.01,2013-08-07 14:43:00,
2013-08-07 09:48:00,85.6,72.9,29.84,SSW,205,4.0,10.0,66,0.00,,---,0.00,VWS V14.01,2013-08-07 14:48:00,
2013-08-07 09:53:00,85.6,72.9,29.84,South,186,8.0,11.0,66,0.00,,---,0.00,VWS V14.01,2013-08-07 14:53:00,
2013-08-07 09:58:00,85.5,72.8,29.84,SSW,198,6.0,9.0,66,0.00,,---,0.00,VWS V14.01,2013-08-07 14:58:00,
2013-08-07 10:03:00,85.7,73.0,29.84,SSW,192,10.0,10.0,66,0.00,,---,0.00,VWS V14.01,2013-08-07 15:03:00,
2013-08-07 10:08:00,86.2,72.6,29.84,South,189,10.0,10.0,64,0.00,,---,0.00,VWS V14.01,2013-08-07 15:08:00,
2013-08-07 10:13:00,86.8,73.6,29.84,SSW,192,9.0,10.0,65,0.00,,---,0.00,VWS V14.01,2013-08-07 15:13:00,
2013-08-07 10:18:00,87.2,73.1,29.84,SSW,194,7.0,10.0,63,0.00,,---,0.00,VWS V14.01,2013-08-07 15:18:00,
2013-08-07 10:23:00,87.5,72.9,29.84,South,178,5.0,14.0,62,0.00,,---,0.00,VWS V14.01,2013-08-07 15:23:00,
2013-08-07 10:25:00,87.4,72.8,29.84,South,172,3.0,14.0,62,0.00,,---,0.00,VWS V14.01,2013-08-07 15:25:00,
2013-08-07 10:30:00,88.1,73.0,29.84,South,185,7.0,10.0,61,0.00,,---,0.00,VWS V14.01,2013-08-07 15:30:00,
2013-08-07 10:35:00,88.6,73.4,29.84,SSW,210,6.0,12.0,61,0.00,,---,0.00,VWS V14.01,2013-08-07 15:35:00,
2013-08-07 10:40:00,88.8,73.1,29.83,SSW,205,6.0,8.0,60,0.00,,---,0.00,VWS V14.01,2013-08-07 15:40:00,
2013-08-07 10:45:00,88.8,73.1,29.83,SSE,155,6.0,13.0,60,0.00,,---,0.00,VWS V14.01,2013-08-07 15:45:00,
2013-08-07 10:50:00,89.2,73.5,29.83,SSW,198,11.0,11.0,60,0.00,,---,0.00,VWS V14.01,2013-08-07 15:50:00,
2013-08-07 10:55:00,89.3,73.1,29.83,South,177,2.0,12.0,59,0.00,,---,0.00,VWS V14.01,2013-08-07 15:55:00,
2013-08-07 11:00:00,89.7,72.4,29.83,SW,223,4.0,13.0,57,0.00,,---,0.00,VWS V14.01,2013-08-07 16:00:00,
2013-08-07 11:05:00,90.1,73.3,29.83,SSW,200,7.0,10.0,58,0.00,,---,0.00,VWS V14.01,2013-08-07 16:05:00,
2013-08-07 11:11:00,90.2,72.9,29.83,SW,215,5.0,13.0,57,0.00,,---,0.00,VWS V14.01,2013-08-07 16:11:00,
2013-08-07 11:16:00,90.6,72.8,29.83,SW,217,9.0,9.0,56,0.00,,---,0.00,VWS V14.01,2013-08-07 16:16:00,
2013-08-07 11:21:00,90.8,72.4,29.83,SSE,156,8.0,11.0,55,0.00,,---,0.00,VWS V14.01,2013-08-07 16:21:00,
2013-08-07 11:26:00,91.0,73.1,29.83,South,171,5.0,11.0,56,0.00,,---,0.00,VWS V14.01,2013-08-07 16:26:00,
2013-08-07 11:31:00,91.4,73.5,29.83,SE,136,4.0,9.0,56,0.00,,---,0.00,VWS V14.01,2013-08-07 16:31:00,
2013-08-07 11:36:00,92.0,73.0,29.83,SSE,153,4.0,8.0,54,0.00,,---,0.00,VWS V14.01,2013-08-07 16:36:00,
2013-08-07 11:41:00,92.6,73.5,29.83,SSW,210,7.0,8.0,54,0.00,,---,0.00,VWS V14.01,2013-08-07 16:41:00,
2013-08-07 11:46:00,93.1,72.3,29.83,South,178,8.0,16.0,51,0.00,,---,0.00,VWS V14.01,2013-08-07 16:46:00,
2013-08-07 11:51:00,92.9,72.7,29.83,South,188,8.0,9.0,52,0.00,,---,0.00,VWS V14.01,2013-08-07 16:51:00,
2013-08-07 11:56:00,92.8,72.0,29.83,SSW,209,5.0,12.0,51,0.00,,---,0.00,VWS V14.01,2013-08-07 16:56:00,
2013-08-07 12:01:00,93.5,73.8,29.83,South,191,1.0,9.0,53,0.00,,---,0.00,VWS V14.01,2013-08-07 17:01:00,
2013-08-07 12:07:00,93.8,72.9,29.82,SE,140,6.0,9.0,51,0.00,,---,0.00,VWS V14.01,2013-08-07 17:07:00,
2013-08-07 12:12:00,94.1,72.6,29.82,South,175,8.0,10.0,50,0.00,,---,0.00,VWS V14.01,2013-08-07 17:12:00,
2013-08-07 12:17:00,94.5,71.2,29.82,SSW,212,6.0,12.0,47,0.00,,---,0.00,VWS V14.01,2013-08-07 17:17:00,
2013-08-07 12:22:00,94.8,72.1,29.82,SSW,208,6.0,9.0,48,0.00,,---,0.00,VWS V14.01,2013-08-07 17:22:00,
2013-08-07 12:27:00,95.5,72.1,29.82,SSE,163,9.0,13.0,47,0.00,,---,0.00,VWS V14.01,2013-08-07 17:27:00,
2013-08-07 12:32:00,95.3,73.1,29.82,South,178,8.0,9.0,49,0.00,,---,0.00,VWS V14.01,2013-08-07 17:32:00,
2013-08-07 12:37:00,95.7,72.9,29.81,SSE,149,6.0,11.0,48,0.00,,---,0.00,VWS V14.01,2013-08-07 17:37:00,
2013-08-07 12:42:00,95.8,71.7,29.81,SE,141,6.0,13.0,46,0.00,,---,0.00,VWS V14.01,2013-08-07 17:42:00,
2013-08-07 12:47:00,96.5,71.7,29.81,South,191,5.0,10.0,45,0.00,,---,0.00,VWS V14.01,2013-08-07 17:47:00,
2013-08-07 12:52:00,96.7,72.5,29.81,South,170,6.0,14.0,46,0.00,,---,0.00,VWS V14.01,2013-08-07 17:52:00,
2013-08-07 12:58:00,96.4,72.3,29.80,ESE,122,5.0,12.0,46,0.00,,---,0.00,VWS V14.01,2013-08-07 17:58:00,
2013-08-07 13:03:00,96.9,71.4,29.80,South,187,11.0,13.0,44,0.00,,---,0.00,VWS V14.01,2013-08-07 18:03:00,
2013-08-07 13:08:00,97.0,70.1,29.80,SSW,192,10.0,12.0,42,0.00,,---,0.00,VWS V14.01,2013-08-07 18:08:00,
2013-08-07 13:13:00,96.9,72.1,29.80,ESE,117,3.0,9.0,45,0.00,,---,0.00,VWS V14.01,2013-08-07 18:13:00,
2013-08-07 13:18:00,97.2,71.7,29.80,SSE,152,3.0,9.0,44,0.00,,---,0.00,VWS V14.01,2013-08-07 18:18:00,
2013-08-07 13:23:00,97.5,72.6,29.79,SSW,192,3.0,8.0,45,0.00,,---,0.00,VWS V14.01,2013-08-07 18:23:00,
2013-08-07 13:28:00,98.4,71.4,29.79,SSW,192,6.0,9.0,42,0.00,,---,0.00,VWS V14.01,2013-08-07 18:28:00,
2013-08-07 13:33:00,98.7,73.0,29.79,SSE,163,6.0,12.0,44,0.00,,---,0.00,VWS V14.01,2013-08-07 18:33:00,
2013-08-07 13:38:00,98.8,71.7,29.79,South,184,5.0,9.0,42,0.00,,---,0.00,VWS V14.01,2013-08-07 18:38:00,
2013-08-07 13:43:00,98.8,71.7,29.79,South,190,4.0,8.0,42,0.00,,---,0.00,VWS V14.01,2013-08-07 18:43:00,
2013-08-07 13:48:00,99.4,70.8,29.79,SSW,209,15.0,15.0,40,0.00,,---,0.00,VWS V14.01,2013-08-07 18:48:00,
2013-08-07 13:53:00,99.5,71.6,29.78,SSE,166,8.0,12.0,41,0.00,,---,0.00,VWS V14.01,2013-08-07 18:53:00,
2013-08-07 13:59:00,99.5,71.6,29.78,SE,140,4.0,7.0,41,0.00,,---,0.00,VWS V14.01,2013-08-07 18:59:00,
2013-08-07 14:04:00,99.7,70.3,29.78,SSW,205,7.0,14.0,39,0.00,,---,0.00,VWS V14.01,2013-08-07 19:04:00,
2013-08-07 14:09:00,100.0,70.6,29.78,SSW,211,3.0,10.0,39,0.00,,---,0.00,VWS V14.01,2013-08-07 19:09:00,
2013-08-07 14:14:00,99.8,71.2,29.78,SW,217,7.0,11.0,40,0.00,,---,0.00,VWS V14.01,2013-08-07 19:14:00,
2013-08-07 14:19:00,99.9,70.5,29.78,SSW,201,7.0,11.0,39,0.00,,---,0.00,VWS V14.01,2013-08-07 19:19:00,
2013-08-07 14:24:00,100.1,71.4,29.78,South,187,9.0,12.0,40,0.00,,---,0.00,VWS V14.01,2013-08-07 19:24:00,
2013-08-07 14:29:00,100.4,71.0,29.78,South,169,3.0,6.0,39,0.00,,---,0.00,VWS V14.01,2013-08-07 19:29:00,
2013-08-07 14:34:00,100.8,72.1,29.78,SW,222,6.0,11.0,40,0.00,,---,0.00,VWS V14.01,2013-08-07 19:34:00,
2013-08-07 14:39:00,100.9,70.7,29.77,SSE,166,8.0,15.0,38,0.00,,---,0.00,VWS V14.01,2013-08-07 19:39:00,
2013-08-07 14:44:00,100.8,70.6,29.77,ESE,120,7.0,13.0,38,0.00,,---,0.00,VWS V14.01,2013-08-07 19:44:00,
2013-08-07 14:50:00,101.2,70.9,29.77,South,180,7.0,16.0,38,0.00,,---,0.00,VWS V14.01,2013-08-07 19:50:00,
2013-08-07 14:55:00,101.4,70.3,29.77,South,188,9.0,12.0,37,0.00,,---,0.00,VWS V14.01,2013-08-07 19:55:00,
2013-08-07 15:00:00,101.8,72.2,29.76,SW,219,7.0,10.0,39,0.00,,---,0.00,VWS V14.01,2013-08-07 20:00:00,
2013-08-07 15:05:00,102.0,70.0,29.76,South,183,9.0,11.0,36,0.00,,---,0.00,VWS V14.01,2013-08-07 20:05:00,
2013-08-07 15:10:00,102.0,70.0,29.76,South,177,6.0,9.0,36,0.00,,---,0.00,VWS V14.01,2013-08-07 20:10:00,
2013-08-07 15:15:00,102.7,69.0,29.76,South,178,7.0,7.0,34,0.00,,---,0.00,VWS V14.01,2013-08-07 20:15:00,
2013-08-07 15:20:00,102.9,70.8,29.75,South,180,8.0,11.0,36,0.00,,---,0.00,VWS V14.01,2013-08-07 20:20:00,
2013-08-07 15:25:00,102.6,69.7,29.75,SSW,192,6.0,8.0,35,0.00,,---,0.00,VWS V14.01,2013-08-07 20:25:00,
2013-08-07 15:30:00,102.3,69.5,29.75,SW,232,6.0,11.0,35,0.00,,---,0.00,VWS V14.01,2013-08-07 20:30:00,
2013-08-07 15:35:00,102.8,69.1,29.75,SSW,207,6.0,12.0,34,0.00,,---,0.00,VWS V14.01,2013-08-07 20:35:00,
2013-08-07 15:41:00,103.1,71.0,29.75,SSW,194,6.0,11.0,36,0.00,,---,0.00,VWS V14.01,2013-08-07 20:41:00,
2013-08-07 15:46:00,103.2,70.2,29.75,SE,142,7.0,9.0,35,0.00,,---,0.00,VWS V14.01,2013-08-07 20:46:00,
2013-08-07 15:51:00,103.1,70.2,29.75,South,188,8.0,10.0,35,0.00,,---,0.00,VWS V14.01,2013-08-07 20:51:00,
2013-08-07 15:56:00,102.7,70.6,29.74,SE,128,8.0,11.0,36,0.00,,---,0.00,VWS V14.01,2013-08-07 20:56:00,
2013-08-07 16:01:00,103.0,70.1,29.75,South,190,5.0,9.0,35,0.00,,---,0.00,VWS V14.01,2013-08-07 21:01:00,
2013-08-07 16:06:00,103.1,69.3,29.74,SSW,197,9.0,16.0,34,0.00,,---,0.00,VWS V14.01,2013-08-07 21:06:00,
2013-08-07 16:11:00,102.9,70.0,29.74,SSW,211,4.0,9.0,35,0.00,,---,0.00,VWS V14.01,2013-08-07 21:11:00,
2013-08-07 16:16:00,103.0,70.1,29.74,SSW,206,9.0,10.0,35,0.00,,---,0.00,VWS V14.01,2013-08-07 21:16:00,
2013-08-07 16:21:00,102.9,70.8,29.74,South,187,6.0,10.0,36,0.00,,---,0.00,VWS V14.01,2013-08-07 21:21:00,
2013-08-07 16:26:00,103.0,70.9,29.74,SSW,196,3.0,6.0,36,0.00,,---,0.00,VWS V14.01,2013-08-07 21:26:00,
2013-08-07 16:31:00,103.0,70.1,29.73,SE,140,3.0,6.0,35,0.00,,---,0.00,VWS V14.01,2013-08-07 21:31:00,
2013-08-07 16:37:00,102.8,69.9,29.73,SSE,148,9.0,13.0,35,0.00,,---,0.00,VWS V14.01,2013-08-07 21:37:00,
2013-08-07 16:42:00,103.0,69.2,29.73,SSW,205,5.0,12.0,34,0.00,,---,0.00,VWS V14.01,2013-08-07 21:42:00,
2013-08-07 16:47:00,103.2,70.2,29.73,West,261,8.0,10.0,35,0.00,,---,0.00,VWS V14.01,2013-08-07 21:47:00,
2013-08-07 16:52:00,103.4,69.6,29.73,SE,137,11.0,14.0,34,0.00,,---,0.00,VWS V14.01,2013-08-07 21:52:00,
2013-08-07 16:57:00,103.2,68.5,29.73,SSW,200,6.0,16.0,33,0.00,,---,0.00,VWS V14.01,2013-08-07 21:57:00,
2013-08-07 17:02:00,103.1,69.3,29.72,South,182,9.0,9.0,34,0.00,,---,0.00,VWS V14.01,2013-08-07 22:02:00,
2013-08-07 17:07:00,102.9,68.3,29.72,SE,127,10.0,16.0,33,0.00,,---,0.00,VWS V14.01,2013-08-07 22:07:00,
2013-08-07 17:12:00,102.6,68.9,29.72,SSE,159,4.0,9.0,34,0.00,,---,0.00,VWS V14.01,2013-08-07 22:12:00,
2013-08-07 17:17:00,102.3,68.6,29.72,ESE,114,7.0,11.0,34,0.00,,---,0.00,VWS V14.01,2013-08-07 22:17:00,
2013-08-07 17:22:00,102.4,69.6,29.72,ESE,121,5.0,9.0,35,0.00,,---,0.00,VWS V14.01,2013-08-07 22:22:00,
2013-08-07 17:27:00,102.5,68.8,29.72,SSE,155,5.0,8.0,34,0.00,,---,0.00,VWS V14.01,2013-08-07 22:27:00,
2013-08-07 17:32:00,102.7,69.0,29.72,SE,139,8.0,10.0,34,0.00,,---,0.00,VWS V14.01,2013-08-07 22:32:00,
2013-08-07 17:38:00,102.9,69.1,29.71,SW,230,7.0,8.0,34,0.00,,---,0.00,VWS V14.01,2013-08-07 22:38:00,
2013-08-07 17:43:00,103.2,68.5,29.71,South,171,3.0,7.0,33,0.00,,---,0.00,VWS V14.01,2013-08-07 22:43:00,
2013-08-07 17:48:00,103.5,68.8,29.71,SE,139,3.0,10.0,33,0.00,,---,0.00,VWS V14.01,2013-08-07 22:48:00,
2013-08-07 17:53:00,103.2,69.4,29.71,South,183,2.0,9.0,34,0.00,,---,0.00,VWS V14.01,2013-08-07 22:53:00,
2013-08-07 17:58:00,102.8,69.1,29.71,SE,131,6.0,11.0,34,0.00,,---,0.00,VWS V14.01,2013-08-07 22:58:00,
2013-08-07 18:03:00,102.3,69.5,29.71,South,190,7.0,13.0,35,0.00,,---,0.00,VWS V14.01,2013-08-07 23:03:00,
2013-08-07 18:08:00,102.1,68.4,29.71,South,176,2.0,8.0,34,0.00,,---,0.00,VWS V14.01,2013-08-07 23:08:00,
2013-08-07 18:13:00,102.3,69.5,29.71,South,171,1.0,8.0,35,0.00,,---,0.00,VWS V14.01,2013-08-07 23:13:00,
2013-08-07 18:18:00,102.3,68.6,29.71,SSW,195,1.0,13.0,34,0.00,,---,0.00,VWS V14.01,2013-08-07 23:18:00,
2013-08-07 18:23:00,102.2,68.5,29.71,SSE,157,4.0,13.0,34,0.00,,---,0.00,VWS V14.01,2013-08-07 23:23:00,
2013-08-07 18:28:00,102.1,68.4,29.70,SE,140,2.0,13.0,34,0.00,,---,0.00,VWS V14.01,2013-08-07 23:28:00,
2013-08-07 18:33:00,101.9,68.3,29.70,SSE,158,8.0,11.0,34,0.00,,---,0.00,VWS V14.01,2013-08-07 23:33:00,
2013-08-07 18:38:00,101.8,69.0,29.70,SSE,162,3.0,10.0,35,0.00,,---,0.00,VWS V14.01,2013-08-07 23:38:00,
2013-08-07 18:44:00,101.6,68.0,29.70,South,171,3.0,7.0,34,0.00,,---,0.00,VWS V14.01,2013-08-07 23:44:00,
2013-08-07 18:49:00,101.6,67.1,29.70,South,173,6.0,11.0,33,0.00,,---,0.00,VWS V14.01,2013-08-07 23:49:00,
2013-08-07 18:54:00,101.4,67.0,29.70,SSE,149,2.0,11.0,33,0.00,,---,0.00,VWS V14.01,2013-08-07 23:54:00,
2013-08-07 18:59:00,101.1,67.6,29.70,SSE,154,7.0,9.0,34,0.00,,---,0.00,VWS V14.01,2013-08-07 23:59:00,
2013-08-07 19:04:00,100.9,66.5,29.70,SSE,168,4.0,10.0,33,0.00,,---,0.00,VWS V14.01,2013-08-08 00:04:00,
2013-08-07 19:09:00,100.6,66.3,29.70,South,172,3.0,8.0,33,0.00,,---,0.00,VWS V14.01,2013-08-08 00:09:00,
2013-08-07 19:14:00,100.2,66.8,29.70,South,170,3.0,8.0,34,0.00,,---,0.00,VWS V14.01,2013-08-08 00:14:00,
2013-08-07 19:19:00,100.2,66.8,29.70,South,175,4.0,7.0,34,0.00,,---,0.00,VWS V14.01,2013-08-08 00:19:00,
2013-08-07 19:24:00,100.1,66.7,29.70,South,176,5.0,8.0,34,0.00,,---,0.00,VWS V14.01,2013-08-08 00:24:00,
2013-08-07 19:29:00,99.8,67.3,29.70,South,179,5.0,7.0,35,0.00,,---,0.00,VWS V14.01,2013-08-08 00:29:00,
2013-08-07 19:34:00,99.5,66.2,29.70,SSE,157,3.0,11.0,34,0.00,,---,0.00,VWS V14.01,2013-08-08 00:34:00,
2013-08-07 19:40:00,99.4,66.1,29.70,South,169,3.0,6.0,34,0.00,,---,0.00,VWS V14.01,2013-08-08 00:40:00,
2013-08-07 19:45:00,99.2,65.9,29.70,SSE,163,5.0,7.0,34,0.00,,---,0.00,VWS V14.01,2013-08-08 00:45:00,
2013-08-07 19:50:00,99.1,65.8,29.70,South,181,3.0,8.0,34,0.00,,---,0.00,VWS V14.01,2013-08-08 00:50:00,
2013-08-07 19:55:00,99.0,66.6,29.70,South,180,3.0,6.0,35,0.00,,---,0.00,VWS V14.01,2013-08-08 00:55:00,
2013-08-07 20:00:00,98.9,65.7,29.70,South,189,2.0,6.0,34,0.00,,---,0.00,VWS V14.01,2013-08-08 01:00:00,
2013-08-07 20:05:00,98.6,66.2,29.70,South,171,2.0,8.0,35,0.00,,---,0.00,VWS V14.01,2013-08-08 01:05:00,
2013-08-07 20:10:00,98.4,66.1,29.70,South,180,4.0,5.0,35,0.00,,---,0.00,VWS V14.01,2013-08-08 01:10:00,
2013-08-07 20:15:00,98.2,65.9,29.71,South,178,0.0,4.0,35,0.00,,---,0.00,VWS V14.01,2013-08-08 01:15:00,
2013-08-07 20:20:00,98.0,65.7,29.71,SSW,192,2.0,5.0,35,0.00,,---,0.00,VWS V14.01,2013-08-08 01:20:00,
2013-08-07 20:25:00,97.6,66.2,29.71,South,180,1.0,4.0,36,0.00,,---,0.00,VWS V14.01,2013-08-08 01:25:00,
2013-08-07 20:30:00,97.5,66.1,29.71,South,177,4.0,5.0,36,0.00,,---,0.00,VWS V14.01,2013-08-08 01:30:00,
2013-08-07 20:35:00,97.2,65.8,29.71,South,182,2.0,7.0,36,0.00,,---,0.00,VWS V14.01,2013-08-08 01:35:00,
2013-08-07 20:41:00,97.0,65.6,29.71,South,178,3.0,4.0,36,0.00,,---,0.00,VWS V14.01,2013-08-08 01:41:00,
2013-08-07 20:46:00,96.9,65.6,29.72,South,180,2.0,4.0,36,0.00,,---,0.00,VWS V14.01,2013-08-08 01:46:00,
2013-08-07 20:51:00,96.9,65.6,29.72,South,180,0.0,5.0,36,0.00,,---,0.00,VWS V14.01,2013-08-08 01:51:00,
2013-08-07 20:56:00,96.5,66.0,29.72,South,180,2.0,5.0,37,0.00,,---,0.00,VWS V14.01,2013-08-08 01:56:00,
2013-08-07 21:01:00,96.3,65.8,29.72,South,186,3.0,4.0,37,0.00,,---,0.00,VWS V14.01,2013-08-08 02:01:00,
2013-08-07 21:06:00,96.2,65.7,29.73,South,184,0.0,3.0,37,0.00,,---,0.00,VWS V14.01,2013-08-08 02:06:00,
2013-08-07 21:11:00,96.0,66.3,29.73,South,182,1.0,3.0,38,0.00,,---,0.00,VWS V14.01,2013-08-08 02:11:00,
2013-08-07 21:12:00,95.9,66.2,29.73,South,182,0.0,4.0,38,0.00,,---,0.00,VWS V14.01,2013-08-08 02:12:00,
2013-08-07 21:18:00,95.2,67.1,29.73,South,182,0.0,1.0,40,0.00,,---,0.00,VWS V14.01,2013-08-08 02:18:00,
2013-08-07 21:23:00,93.9,68.0,29.74,SE,130,0.0,4.0,43,0.00,,---,0.00,VWS V14.01,2013-08-08 02:23:00,
2013-08-07 21:28:00,93.4,66.9,29.74,SE,131,0.0,2.0,42,0.00,,---,0.00,VWS V14.01,2013-08-08 02:28:00,
2013-08-07 21:33:00,93.3,66.1,29.74,SE,131,2.0,2.0,41,0.00,,---,0.00,VWS V14.01,2013-08-08 02:33:00,
2013-08-07 21:38:00,93.2,66.7,29.74,SE,131,0.0,2.0,42,0.00,,---,0.00,VWS V14.01,2013-08-08 02:38:00,
2013-08-07 21:40:00,93.1,67.3,29.74,SE,131,0.0,2.0,43,0.00,,---,0.00,VWS V14.01,2013-08-08 02:40:00,
2013-08-07 21:45:00,92.6,68.8,29.74,SE,132,0.0,3.0,46,0.00,,---,0.00,VWS V14.01,2013-08-08 02:45:00,
2013-08-07 21:50:00,91.6,67.9,29.74,SE,132,3.0,3.0,46,0.00,,---,0.00,VWS V14.01,2013-08-08 02:50:00,
2013-08-07 21:56:00,91.0,67.4,29.74,SE,132,0.0,3.0,46,0.00,,---,0.00,VWS V14.01,2013-08-08 02:56:00,
2013-08-07 22:01:00,91.0,66.7,29.74,SE,146,0.0,4.0,45,0.00,,---,0.00,VWS V14.01,2013-08-08 03:01:00,
2013-08-07 22:06:00,91.2,66.9,29.75,SSE,148,1.0,2.0,45,0.00,,---,0.00,VWS V14.01,2013-08-08 03:06:00,
2013-08-07 22:11:00,91.5,67.2,29.75,SSE,150,0.0,2.0,45,0.00,,---,0.00,VWS V14.01,2013-08-08 03:11:00,
2013-08-07 22:16:00,91.7,67.4,29.75,SSE,152,0.0,4.0,45,0.00,,---,0.00,VWS V14.01,2013-08-08 03:16:00,
2013-08-07 22:21:00,91.7,67.4,29.75,SSE,152,0.0,3.0,45,0.00,,---,0.00,VWS V14.01,2013-08-08 03:21:00,
2013-08-07 22:26:00,91.6,67.3,29.75,SE,138,2.0,6.0,45,0.00,,---,0.00,VWS V14.01,2013-08-08 03:26:00,
2013-08-07 22:31:00,91.5,67.2,29.75,SE,138,0.0,2.0,45,0.00,,---,0.00,VWS V14.01,2013-08-08 03:31:00,
2013-08-07 22:36:00,91.5,67.2,29.76,SSE,160,3.0,3.0,45,0.00,,---,0.00,VWS V14.01,2013-08-08 03:36:00,
2013-08-07 22:41:00,91.5,67.2,29.76,SSE,163,1.0,4.0,45,0.00,,---,0.00,VWS V14.01,2013-08-08 03:41:00,
2013-08-07 22:46:00,91.3,67.6,29.76,SSE,161,0.0,3.0,46,0.00,,---,0.00,VWS V14.01,2013-08-08 03:46:00,
2013-08-07 22:52:00,91.0,68.0,29.76,SSE,161,0.0,1.0,47,0.00,,---,0.00,VWS V14.01,2013-08-08 03:52:00,
2013-08-07 22:57:00,90.6,68.2,29.77,SSE,161,0.0,1.0,48,0.00,,---,0.00,VWS V14.01,2013-08-08 03:57:00,
2013-08-07 23:01:00,90.2,69.1,29.77,SSE,161,0.0,0.0,50,0.00,,---,0.00,VWS V14.01,2013-08-08 04:01:00,
2013-08-07 23:02:00,90.0,68.9,29.77,SSE,161,0.0,0.0,50,0.00,,---,0.00,VWS V14.01,2013-08-08 04:02:00,
2013-08-07 23:07:00,89.5,69.0,29.77,SSE,161,0.0,1.0,51,0.00,,---,0.00,VWS V14.01,2013-08-08 04:07:00,
2013-08-07 23:13:00,88.4,69.1,29.77,SSE,161,1.0,1.0,53,0.00,,---,0.00,VWS V14.01,2013-08-08 04:13:00,
2013-08-07 23:18:00,87.4,68.7,29.77,SSE,161,0.0,0.0,54,0.00,,---,0.00,VWS V14.01,2013-08-08 04:18:00,
2013-08-07 23:23:00,86.7,68.6,29.77,SSE,161,0.0,0.0,55,0.00,,---,0.00,VWS V14.01,2013-08-08 04:23:00,
2013-08-07 23:28:00,86.1,69.6,29.77,SSE,161,0.0,0.0,58,0.00,,---,0.00,VWS V14.01,2013-08-08 04:28:00,
2013-08-07 23:33:00,85.3,69.8,29.77,SSE,161,0.0,0.0,60,0.00,,---,0.00,VWS V14.01,2013-08-08 04:33:00,
2013-08-07 23:38:00,84.7,68.3,29.77,SSE,161,0.0,2.0,58,0.00,,---,0.00,VWS V14.01,2013-08-08 04:38:00,
2013-08-07 23:43:00,84.6,68.2,29.77,SSE,161,1.0,1.0,58,0.00,,---,0.00,VWS V14.01,2013-08-08 04:43:00,
2013-08-07 23:48:00,84.7,68.3,29.77,SSE,161,0.0,0.0,58,0.00,,---,0.00,VWS V14.01,2013-08-08 04:48:00,
2013-08-07 23:53:00,84.9,67.5,29.77,SSE,161,1.0,2.0,56,0.00,,---,0.00,VWS V14.01,2013-08-08 04:53:00,
2013-08-07 23:59:00,85.4,67.4,29.77,SSE,161,2.0,2.0,55,0.00,,---,0.00,VWS V14.01,2013-08-08 04:59:00,